Погода в Атяшево

Россия / Республика Мордовия     54°35′24″N   46°07′10″E
темп.,
°C
ветер,
м/с
пор.,
м/с
влажн.,
%
обл.,
%
осадки,
мм/ч
давл.,
гПа
погр.,
м
15 апреля, чт
чт1500:00+11юв22850 0.0 102116
03:00+9юв22853 0.0 102112
06:00+9юв22790 0.0 102018
09:00+14ююв345649 0.0 1019268
12:00+18ююв213899 0.0 10181265
15:00+19всв21337 0.0 10181304
18:00+16св22451 0.0 101833
21:00+13св335586 0.0 101829
16 апреля, пт
пт1600:00+11св336096 0.0 101827
03:00+9св347078 0.0 101954
06:00+8св4109186 0.0 1020227
09:00+10всв688588 0.0 1021427
12:00+13всв6772100 0.0 1022630
15:00+14всв6763100 0.0 1022855
18:00+12всв5972100 0.0 1022551
21:00+9всв6118398 0.0 1023355
17 апреля, сб
сб1700:00+7всв5118649 0.0 1024281
03:00+5всв511836 0.0 1024245
06:00+5всв5118714 0.0 1025309
09:00+9всв69715 0.0 1025514
12:00+12всв895614 0.0 1024803
15:00+13в79485 0.0 1024914
18:00+11всв69505 0.0 1024595
21:00+8всв714523 0.0 1024351
18 апреля, вс
вс1800:00+5всв513595 0.0 1024311
03:00+5всв613634 0.0 1024314
06:00+4всв613685 0.0 1024360
09:00+8всв710521 0.0 1023780
12:00+11в67404 0.0 10231405
15:00+12в673788 0.0 10231770
18:00+11в5945100 0.0 1023758
21:00+8всв41157100 0.0 1024510
19 апреля, пн
пн1900:00+6всв7137498 0.0 1026539
03:00+4всв6127297 0.0 1027491
06:00+2всв61261100 0.0 1027471
09:00+4в71051100 0.0 1028739
12:00+6в8944100 0.0 10281266
15:00+7в81038100 0.0 10271528
18:00+6всв6104486 0.0 10271176
21:00+4всв61348100 0.0 1028544